Tracking 26894 objects as of 1-Feb-2023
HD Live streaming from Space Station
objects crossing your sky now

NSL-1

Track NSL-1 now!
10-day predictions


NORAD ID: 44391
Int'l Code: 2019-038E
Perigee: 539.0 km
Apogee: 570.7 km
Inclination: 97.9 °
Period: 95.6 minutes
Semi major axis: 6925 km
RCS: Unknown
Launch date: July 5, 2019
Source: Israel (ISRA)
Launch site: VOSTOCHNY COSMODROME (VOSTO)
Your satellite tracking list
Your tracking list is empty




NASA's NSSDC Master Catalog

Two Line Element Set (TLE):
1 44391U 19038E   23032.43650241  .00013021  00000-0  88572-3 0  9997
2 44391  97.8659  11.1722 0022874 155.5284 204.7034 15.06247354195703
Source of the keplerian elements: AFSPC